sat.trackr.live / text

‹ back to catalog

2023-189A

NORAD 58502 · 2023-189A

PAYLOAD ACTIVE UNKNOWN

§ Identity

Operator
Country
PRC
Launch date
2023-12-04
Launch site
JSC
Launch vehicle
Mass (kg)
RCS (m²)

External: N2YO · Heavens-Above · Gunter

§ Orbital elements

Epoch: 2026-09-22T00:07:22.019808Z

Period
93.87 min
Inclination
97.4361°
Eccentricity
0.0008843
Mean motion
15.34005638 rev/d
Perigee alt
457.8 km
Apogee alt
469.9 km
Semi-major
6,842.0 km
B*
8.4183e-5
RAAN
283.8896°
Arg perigee
274.0410°
Mean anomaly
85.9822°
Rev number
15,605

§ Raw data

2023-189A1 58502U 23189A   26265.00511597  .00002691  00000+0  84183-4 0  99972 58502  97.4361 283.8896 0008843 274.0410  85.9822 15.34005638156053

JSON: /api/v1/satellites/58502 · /tle

For live sub-satellite position, see the globe view (requires WebGL).

§ Visibility from observer

Set your observer location to see the next 7 days of passes ≥ 10°. The values pass through the URL so the page stays shareable.

No JS? Fill the form by hand. The geolocation button needs JavaScript.